• In Netherlands
  • List of Countries
  • For 7 days
  • Water Temperature
  • Satellite Maps
  • Weather Map
  • Weather Widgets
  • user-avatar
    Login

    Hourly Weather Prutz

    Today, 20 February, Monday

    Time Temperature Precipitation Wind Pressure Humidity
    00:00 -9°C° 0 mm 1 mps 632 mmHg 94%
    01:00 -8°C° 0 mm 1 mps 632 mmHg 94%
    02:00 -8°C° 0 mm 1 mps 632 mmHg 95%
    03:00 -8°C° 0 mm 1 mps 632 mmHg 95%
    04:00 -9°C° 0 mm 1 mps 632 mmHg 95%
    05:00 -9°C° 0 mm 1 mps 632 mmHg 95%
    06:00 -9°C° 0 mm 1 mps 632 mmHg 95%
    07:00 -9°C° 0 mm 1 mps 632 mmHg 95%
    08:00 -6°C° 0 mm 1 mps 633 mmHg 94%
    09:00 -3°C° 0 mm 1 mps 634 mmHg 93%
    10:00 0°C° 0 mm 1 mps 635 mmHg 92%
    11:00 +1°C° 0 mm 1 mps 635 mmHg 92%
    12:00 +2°C° 0 mm 1 mps 635 mmHg 92%
    13:00 +3°C° 0 mm 1 mps 635 mmHg 92%
    14:00 +3°C° 0 mm 1 mps 634 mmHg 92%
    15:00 +3°C° 0 mm 1 mps 634 mmHg 93%
    16:00 +3°C° 0 mm 1 mps 634 mmHg 94%
    17:00 0°C° 0 mm 1 mps 633 mmHg 95%
    18:00 -3°C° 0 mm 1 mps 632 mmHg 96%
    19:00 -7°C° 0 mm 1 mps 631 mmHg 97%
    20:00 -6°C° 0 mm 1 mps 632 mmHg 96%
    21:00 -4°C° 0 mm 1 mps 632 mmHg 95%
    22:00 -3°C° 0 mm 1 mps 633 mmHg 93%
    23:00 -2°C° 0.2 mm 1 mps 633 mmHg 93%

    Tomorrow, 21 February, Tuesday

    Time Temperature Precipitation Wind Pressure Humidity
    00:00 -1°C° 0.2 mm 1 mps 633 mmHg 94%
    01:00 -2°C° 0.2 mm 2 mps 634 mmHg 94%
    02:00 -2°C° 0.3 mm 2 mps 633 mmHg 94%
    03:00 -1°C° 0.3 mm 2 mps 633 mmHg 95%
    04:00 -1°C° 0.3 mm 2 mps 633 mmHg 96%
    05:00 -2°C° 0.1 mm 2 mps 633 mmHg 96%
    06:00 -2°C° 0.1 mm 2 mps 632 mmHg 97%
    07:00 -2°C° 0.1 mm 2 mps 632 mmHg 97%
    08:00 -1°C° 0.1 mm 2 mps 632 mmHg 97%
    09:00 +1°C° 0.1 mm 2 mps 633 mmHg 97%
    10:00 +4°C° 0.1 mm 1 mps 633 mmHg 97%
    11:00 +4°C° 0.4 mm 1 mps 633 mmHg 97%
    12:00 +5°C° 0.4 mm 1 mps 633 mmHg 97%
    13:00 +5°C° 0.4 mm 1 mps 633 mmHg 97%
    14:00 +5°C° 0.4 mm 1 mps 633 mmHg 98%
    15:00 +5°C° 0.4 mm 1 mps 632 mmHg 98%
    16:00 +5°C° 0.4 mm 1 mps 632 mmHg 98%
    17:00 +4°C° 0.4 mm 1 mps 632 mmHg 98%
    18:00 +3°C° 0.4 mm 1 mps 632 mmHg 97%
    19:00 +2°C° 0.4 mm 1 mps 632 mmHg 97%
    20:00 +2°C° 0.2 mm 1 mps 632 mmHg 97%
    21:00 +2°C° 0.2 mm 1 mps 632 mmHg 98%
    22:00 +1°C° 0.2 mm 1 mps 632 mmHg 98%
    23:00 0°C° 0 mm 1 mps 631 mmHg 98%

    Day after tomorrow, 22 February, Wednesday

    Time Temperature Precipitation Wind Pressure Humidity
    00:00 -1°C° 0 mm 1 mps 631 mmHg 98%
    01:00 -2°C° 0 mm 1 mps 631 mmHg 98%
    02:00 -2°C° 0 mm 1 mps 630 mmHg 97%
    03:00 -2°C° 0 mm 1 mps 630 mmHg 97%
    04:00 -2°C° 0 mm 1 mps 630 mmHg 97%
    05:00 -2°C° 0 mm 1 mps 630 mmHg 96%
    06:00 -1°C° 0 mm 1 mps 630 mmHg 95%
    07:00 -1°C° 0 mm 1 mps 630 mmHg 95%
    08:00 +1°C° 0 mm 1 mps 631 mmHg 95%
    09:00 +3°C° 0 mm 1 mps 631 mmHg 94%
    10:00 +4°C° 0 mm 1 mps 632 mmHg 94%
    11:00 +5°C° 0 mm 1 mps 631 mmHg 94%
    12:00 +6°C° 0 mm 1 mps 631 mmHg 94%
    13:00 +5°C° 0 mm 2 mps 631 mmHg 94%
    14:00 +5°C° 0 mm 2 mps 631 mmHg 95%
    15:00 +5°C° 0 mm 2 mps 631 mmHg 95%
    16:00 +4°C° 0 mm 2 mps 630 mmHg 96%
    17:00 +3°C° 0 mm 2 mps 630 mmHg 95%
    18:00 +1°C° 0 mm 2 mps 630 mmHg 95%
    19:00 -2°C° 0 mm 2 mps 629 mmHg 94%
    20:00 -3°C° 0 mm 2 mps 629 mmHg 93%
    21:00 -3°C° 0 mm 2 mps 629 mmHg 92%
    22:00 -4°C° 0 mm 2 mps 629 mmHg 91%
    23:00 -4°C° 0 mm 2 mps 629 mmHg 92%

    23 February, Thursday

    Time Temperature Precipitation Wind Pressure Humidity
    00:00 -4°C° 0 mm 2 mps 629 mmHg 92%
    01:00 -5°C° 0 mm 2 mps 628 mmHg 93%
    02:00 -5°C° 0 mm 2 mps 628 mmHg 92%
    03:00 -5°C° 0 mm 2 mps 628 mmHg 91%
    04:00 -5°C° 0 mm 2 mps 628 mmHg 90%
    05:00 -5°C° 0 mm 2 mps 627 mmHg 88%
    06:00 -5°C° 0 mm 2 mps 627 mmHg 86%
    07:00 -5°C° 0 mm 2 mps 627 mmHg 85%
    08:00 -3°C° 0 mm 2 mps 628 mmHg 85%
    09:00 +2°C° 0 mm 1 mps 629 mmHg 86%
    10:00 +4°C° 0 mm 1 mps 629 mmHg 86%
    11:00 +4°C° 0 mm 2 mps 629 mmHg 87%
    12:00 +5°C° 0 mm 2 mps 629 mmHg 87%
    13:00 +5°C° 0 mm 2 mps 628 mmHg 87%
    14:00 +5°C° 0 mm 2 mps 628 mmHg 89%
    15:00 +5°C° 0 mm 2 mps 627 mmHg 91%
    16:00 +4°C° 0 mm 2 mps 627 mmHg 93%
    17:00 +3°C° 0 mm 2 mps 627 mmHg 94%
    18:00 +2°C° 0 mm 2 mps 626 mmHg 95%
    19:00 +1°C° 0 mm 2 mps 626 mmHg 97%
    20:00 -1°C° 0 mm 2 mps 626 mmHg 96%
    21:00 -1°C° 0 mm 2 mps 626 mmHg 96%
    22:00 -1°C° 0 mm 2 mps 627 mmHg 96%
    23:00 -1°C° 0.2 mm 2 mps 626 mmHg 96%

    24 February, Friday

    Time Temperature Precipitation Wind Pressure Humidity
    00:00 0°C° 0.2 mm 1 mps 626 mmHg 95%
    01:00 0°C° 0.2 mm 1 mps 626 mmHg 95%
    02:00 0°C° 0.1 mm 1 mps 625 mmHg 95%
    03:00 -1°C° 0.1 mm 1 mps 625 mmHg 94%
    04:00 -1°C° 0.1 mm 1 mps 624 mmHg 94%
    05:00 -1°C° 0.2 mm 1 mps 625 mmHg 94%
    06:00 0°C° 0.2 mm 1 mps 625 mmHg 94%
    07:00 0°C° 0.2 mm 1 mps 625 mmHg 94%
    08:00 +1°C° 0.5 mm 1 mps 626 mmHg 93%
    09:00 +2°C° 0.5 mm 1 mps 626 mmHg 93%
    10:00 +3°C° 0.5 mm 1 mps 626 mmHg 92%
    11:00 +3°C° 0.8 mm 1 mps 626 mmHg 92%
    12:00 +2°C° 0.8 mm 2 mps 626 mmHg 92%
    13:00 +2°C° 0.8 mm 2 mps 626 mmHg 92%
    14:00 +2°C° 0.5 mm 2 mps 626 mmHg 92%
    15:00 +1°C° 0.5 mm 2 mps 626 mmHg 93%
    16:00 +1°C° 0.5 mm 2 mps 626 mmHg 93%
    17:00 -1°C° 0.4 mm 2 mps 626 mmHg 94%
    18:00 -2°C° 0.4 mm 2 mps 627 mmHg 95%
    19:00 -2°C° 0.4 mm 2 mps 627 mmHg 95%
    20:00 -3°C° 0.2 mm 2 mps 627 mmHg 95%
    21:00 -3°C° 0.2 mm 2 mps 628 mmHg 95%
    22:00 -4°C° 0.2 mm 2 mps 628 mmHg 95%
    23:00 -4°C° 0 mm 2 mps 628 mmHg 95%

    25 February, Saturday

    Time Temperature Precipitation Wind Pressure Humidity
    00:00 -5°C° 0 mm 2 mps 628 mmHg 95%
    01:00 -5°C° 0 mm 2 mps 628 mmHg 94%
    02:00 -5°C° 0 mm 2 mps 628 mmHg 94%
    03:00 -5°C° 0 mm 2 mps 628 mmHg 93%
    04:00 -5°C° 0 mm 2 mps 628 mmHg 92%
    05:00 -5°C° 0 mm 2 mps 628 mmHg 92%
    06:00 -5°C° 0 mm 2 mps 628 mmHg 91%
    07:00 -5°C° 0 mm 2 mps 628 mmHg 91%
    08:00 -3°C° 0.2 mm 2 mps 629 mmHg 91%
    09:00 -1°C° 0.2 mm 2 mps 629 mmHg 91%
    10:00 +2°C° 0.2 mm 2 mps 630 mmHg 92%
    11:00 +4°C° 0.1 mm 1 mps 630 mmHg 92%
    12:00 +5°C° 0.1 mm 1 mps 630 mmHg 92%
    13:00 +6°C° 0.1 mm 1 mps 630 mmHg 92%
    14:00 +5°C° 0 mm 1 mps 630 mmHg 93%
    15:00 +5°C° 0 mm 1 mps 630 mmHg 94%
    16:00 +5°C° 0 mm 1 mps 630 mmHg 95%
    17:00 +4°C° 0 mm 1 mps 630 mmHg 96%
    18:00 +3°C° 0 mm 1 mps 630 mmHg 96%
    19:00 +1°C° 0 mm 1 mps 630 mmHg 97%
    20:00 +1°C° 0 mm 1 mps 630 mmHg 96%
    21:00 0°C° 0 mm 1 mps 630 mmHg 95%
    22:00 -2°C° 0 mm 2 mps 630 mmHg 94%
    23:00 -2°C° 0 mm 2 mps 629 mmHg 92%
    Show more